Regional Weather Roundup
Issued by NWS Jackson, KY

Home | Current Version | Previous Version | Graphics & Text | Print | Product List | Glossary On
Versions: 1 2 3 4 5 6 7 8 9 10 11 12 13 14 15 16 17 18 19 20 21 22 23 24 25 26 27 28 29 30 31 32 33 34 35 36 37 38 39 40 41 42 43 44 45 46 47 48 49 50
000
ASUS43 KJKL 190610
RWRJKL

EAST KENTUCKY HOURLY WEATHER ROUNDUP
NATIONAL WEATHER SERVICE JACKSON KY
200 AM EDT TUE SEP 19 2017

NOTE: "FAIR" INDICATES FEW OR NO CLOUDS BELOW 12,000 FEET WITH
NO SIGNIFICANT WEATHER AND/OR OBSTRUCTIONS TO VISIBILITY.

* THESE REPORTS ARE NOT UNDER NWS QUALITY CONTROL AND MAY NOT
  REPORT WEATHER SUCH AS PRECIPITATION AND FOG.

KYZ079-080-083-085-087-088-110-112-115-119-120-190700
...EASTERN KENTUCKY...

CITY           SKY/WX    TMP DP  RH WIND       PRES   REMARKS
JACKSON        CLEAR     66  60  81 SE3       30.04F
6HR MIN TEMP:  66; 6HR MAX TEMP:  74;

LONDON         CLOUDY    66  63  90 CALM      30.03F
6HR MIN TEMP:  64; 6HR MAX TEMP:  74;

SOMERSET*      CLOUDY    64  64 100 CALM      30.03S FOG
MONTICELLO*    PTCLDY    64  63  96 W9        30.03F
6HR MIN TEMP:  64; 6HR MAX TEMP:  72;

WILLIAMSBURG*  CLOUDY    66  66 100 S3        30.03S
MIDDLESBORO*   PTCLDY    62  62 100 CALM      30.06S FOG
6HR MIN TEMP:  62; 6HR MAX TEMP:  71;

HARLAN APT*    CLOUDY    61  59  94 CALM      30.07S
PIKE CO APT*     N/A     64  64 100 SE3       30.04F
BIG SANDY APT* CLEAR     63  63 100 CALM      30.04S
6HR MIN TEMP:  62; 6HR MAX TEMP:  71;

MOREHEAD APT*  PTCLDY    68  63  83 CALM      30.03S
$$

KYZ035-036-041-042-044-050-067-078-099-190700
...CENTRAL KENTUCKY...

CITY           SKY/WX    TMP DP  RH WIND       PRES   REMARKS
MT STERLING*   CLOUDY    70  64  83 S3        30.03S
FLEMING/MASON* CLOUDY    67  64  92 SE5       30.02S
DANVILLE*      PTCLDY    70  64  83 CALM      30.02F
LEXINGTON      CLOUDY    70  66  87 SW5       30.01S
6HR MIN TEMP:  70; 6HR MAX TEMP:  77;

FRANKFORT      CLOUDY    74  66  76 S5        29.99S
6HR MIN TEMP:  72; 6HR MAX TEMP:  78;

LOUISVILLE     CLOUDY    75  70  84 CALM      29.97F
6HR MIN TEMP:  74; 6HR MAX TEMP:  81;

LEBANON*         N/A     72  66  83 CALM      30.00F
GLASGOW*       CLEAR    N/A N/A N/A CALM      29.99F HAZE
BOWLING GREEN  FOG       68  68 100 E3        29.98F VSB 1/2
6HR MIN TEMP:  67; 6HR MAX TEMP:  71; 6HR PCP: TRACE;

$$

KYZ091>093-OHZ055-061-077-WVZ005-015-034-035-042-190700
...SOUTHERN OHIO/WEST VIRGINIA...

CITY           SKY/WX    TMP DP  RH WIND       PRES   REMARKS
COVINGTON      CLOUDY    70  66  87 S3        29.99F
COLUMBUS       CLOUDY    71  66  84 CALM      30.01S
DAYTON         CLOUDY    66  66 100 CALM      30.02R FOG
WILMINGTON     PTCLDY    67  66  97 SE3       30.01S
HUNTINGTON     PTCLDY    66  64  93 NE3       30.01F FOG
CHARLESTON     PTCLDY    63  62  97 CALM      30.02F FOG
PINEVILLE*     CLEAR     61  60  95 MISG      30.11F FOG
BECKLEY        CLEAR     61  59  93 SE3       30.09F
BLUEFIELD      PTCLDY    63  58  83 CALM      30.12F
LOGAN CO APT*    N/A     64  63  94 CALM      30.05F
$$

VAZ002-007-008-TNZ017-027-036-066-071-190700
...SOUTHWEST VIRGINIA/EAST TENNESSEE...

CITY           SKY/WX    TMP DP  RH WIND       PRES   REMARKS
WISE*          CLEAR     63  55  77 CALM      30.11F
JONESVILLE*      N/A     59  57  94 CALM      30.08S
ABINGDON*      CLEAR     63  60  90 CALM      30.08F
BRISTOL        CLEAR     57  57 100 N3        30.05F FOG
MORRISTOWN*    CLEAR     64  61  88 CALM      30.03S
SEVIERVILLE*   CLEAR     63  61  94 CALM      30.01F
KNOXVILLE      CLEAR     66  62  87 CALM      30.01F
LAFOLLETTE*    CLEAR     63  63 100 CALM      30.07S FOG
OAK RIDGE      CLEAR     66  64  93 CALM      30.03F
CROSSVILLE     CLEAR     62  61  96 CALM      30.07S
NASHVILLE      PTCLDY    70  67  90 CALM      30.00S
$$

...KEY TO REMARKS...
VSB - VISIBILITY IN MILES
WCI - WIND CHILL INDEX
HX  - HEAT INDEX

$$



USA.gov is the U.S. government's official web portal to all federal, state and local government web resources and services.